Content
SEND FEEDBACK

Daily
Averages
Monthly
Summary
United States of America

BROUSSARD, LOUISIANA


Home > North America > United States > Louisiana
Elevation: 4 feet     Latitude: 30 12N     Longitude: 091 59W

WEATHER
 
SELECT A DAY
Number of Records: 212,517;   Date Range: 1/1/95 - 10/23/14
 
SHARE

PRINT THIS DATA

[ ← Previous Day ]
WEATHER ALMANAC - JANUARY 23, 2013
[ Next Day → ]
[ °C ]   °F
Weather ElementAverageHighLow
Temperature57.1 °F70 °F (12:53 pm)46.4 °F (7:44 am)
Dewpoint49.9 °F53.1 °F (6:53 pm)46 °F (6:53 am)
Humidity78.9 %100 % (7:44 am)47 % (12:53 pm)
Barometer30.33 in30.39 in (9:53 am)30.29 in (11:53 pm)
Wind Speed4.6 mph12.7 mph (4:53 pm)
Weather ElementAverage
Visibility7.2 mi
Wind DirectionESE (116.9 °)

Weather ElementTotal
Precipitation0.01 in
Heating Degree Days6.8 (Base 65)
Growing Degree Days8.2 (Base 50)
Averaged from 26 records on January 23, 2013
WEATHER CONDITIONS BREAKOUT
WIND DIRECTION BREAKOUT
WEATHER BY HOUR - JANUARY 23, 2013
[ °C ]   °F
Local TimeTemperatureDewpointHumidityBarometerVisibilityWind DirectionWind SpeedGust SpeedPrecipitationEventsConditions
1:53 AM51.1 °F48.0 °F89 %30.33 in8.0 miSSE (160°)4.6 mphClear
2:53 AM50.0 °F46.9 °F89 %30.33 in6.0 miCalmClear
3:53 AM48.9 °F46.9 °F93 %30.33 in5.0 miCalm0.01 inClear
4:53 AM48.9 °F46.9 °F93 %30.33 in4.0 miCalmClear
5:53 AM48.0 °F46.9 °F96 %30.34 in2.5 miCalmClear
6:04 AM48.2 °F46.4 °F93 %30.34 in1.5 miCalmClear
6:50 AM48.2 °F46.4 °F93 %30.35 in0.5 miCalmFogFog
6:53 AM46.9 °F46.0 °F97 %30.36 in0.2 miCalmFogFog
7:44 AM46.4 °F46.4 °F100 %30.36 in3.0 miCalmFogShallow Fog
7:53 AM50.0 °F48.0 °F93 %30.37 in3.0 miCalmClear
8:53 AM55.0 °F51.1 °F86 %30.38 in6.0 miSouth (170°)4.6 mphClear
9:53 AM61.0 °F50.0 °F67 %30.39 in10.0 miSouth (170°)4.6 mphClear
10:53 AM64.9 °F51.1 °F61 %30.39 in10.0 miSSW (210°)10.4 mphClear
11:53 AM66.9 °F52.0 °F59 %30.36 in10.0 miSSW (210°)10.4 mphClear
12:53 PM70.0 °F48.9 °F47 %30.33 in10.0 miWSW (250°)11.5 mphClear
1:53 PM70.0 °F50.0 °F49 %30.32 in10.0 miSW (220°)8.1 mphClear
2:53 PM70.0 °F52.0 °F53 %30.30 in10.0 miSW (220°)10.4 mphPartly Cloudy
3:53 PM69.1 °F52.0 °F54 %30.31 in10.0 miSSW (200°)11.5 mphScattered Clouds
4:53 PM66.0 °F52.0 °F60 %30.30 in10.0 miSouth (190°)12.7 mphPartly Cloudy
5:53 PM63.0 °F52.0 °F67 %30.30 in10.0 miSouth (180°)5.8 mphClear
6:53 PM60.1 °F53.1 °F78 %30.30 in10.0 miSouth (180°)5.8 mphClear
7:53 PM57.9 °F53.1 °F84 %30.30 in10.0 miSouth (170°)4.6 mphClear
8:53 PM57.0 °F53.1 °F87 %30.30 in10.0 miSouth (170°)5.8 mphClear
9:53 PM57.0 °F53.1 °F87 %30.30 in10.0 miSouth (170°)3.5 mphClear
10:53 PM55.9 °F52.0 °F87 %30.31 in10.0 miCalmClear
11:53 PM55.0 °F52.0 °F89 %30.29 in8.0 miSouth (170°)5.8 mphClear
Hourly data recorded from KLFT, located miles away from Broussard, Louisiana







STORIES FROM OUR PARTNERS